TimeCST,TemperatureF,Dew PointF,Humidity,Sea Level PressureIn,VisibilityMPH,Wind Direction,Wind SpeedMPH,Gust SpeedMPH,PrecipitationIn,Events,Conditions,WindDirDegrees,DateUTC
12:58 AM,33.6,30.4,88,29.95,10.0,WNW,9.2,19.6,N/A,,Overcast,300,2013-12-05 06:58:00
1:58 AM,30.7,27.3,87,29.99,10.0,Variable,6.9,18.4,N/A,,Overcast,0,2013-12-05 07:58:00
2:58 AM,29.8,25.3,83,30.02,10.0,NW,10.4,17.3,N/A,,Overcast,320,2013-12-05 08:58:00
3:03 AM,30.2,24.8,80,30.00,10.0,NW,10.4,18.4,N/A,,Overcast,320,2013-12-05 09:03:00
3:58 AM,28.8,23.7,81,30.06,10.0,NW,9.2,-,N/A,,Overcast,310,2013-12-05 09:58:00
4:08 AM,28.4,23.0,80,30.02,10.0,NW,10.4,17.3,N/A,,Overcast,310,2013-12-05 10:08:00
4:27 AM,28.4,23.0,80,30.03,10.0,NNW,10.4,-,N/A,,Overcast,330,2013-12-05 10:27:00
4:51 AM,28.4,23.0,80,30.05,10.0,NNW,11.5,-,N/A,,Overcast,340,2013-12-05 10:51:00
4:56 AM,28.4,23.0,80,30.05,10.0,NNW,10.4,-,N/A,,Overcast,330,2013-12-05 10:56:00
4:58 AM,27.7,22.3,80,30.08,10.0,NNW,10.4,-,0.00,,Overcast,330,2013-12-05 10:58:00
5:00 AM,28.4,23.0,80,30.05,10.0,NNW,12.7,-,N/A,,Overcast,340,2013-12-05 11:00:00
5:16 AM,26.6,23.0,86,30.06,10.0,NNW,11.5,-,N/A,,Overcast,330,2013-12-05 11:16:00
5:27 AM,26.6,23.0,86,30.06,10.0,NNW,9.2,-,N/A,,Overcast,330,2013-12-05 11:27:00
5:40 AM,26.6,23.0,86,30.06,10.0,NW,9.2,-,N/A,,Overcast,320,2013-12-05 11:40:00
5:48 AM,26.6,23.0,86,30.07,10.0,NW,6.9,-,N/A,,Overcast,320,2013-12-05 11:48:00
5:58 AM,27.0,23.0,85,30.10,8.0,NNW,11.5,-,0.00,,Overcast,330,2013-12-05 11:58:00
6:23 AM,26.6,23.0,86,30.10,7.0,NNW,9.2,-,N/A,,Overcast,330,2013-12-05 12:23:00
6:43 AM,26.6,21.2,80,30.11,10.0,WNW,10.4,-,N/A,,Overcast,300,2013-12-05 12:43:00
6:58 AM,25.3,21.9,87,30.15,10.0,WNW,8.1,-,0.02,,Overcast,300,2013-12-05 12:58:00
7:18 AM,24.8,21.2,86,30.11,10.0,NW,10.4,17.3,N/A,,Freezing Rain,310,2013-12-05 13:18:00
7:23 AM,24.8,21.2,86,30.13,10.0,NW,10.4,17.3,N/A,,Freezing Rain,320,2013-12-05 13:23:00
7:27 AM,24.8,21.2,86,30.12,10.0,NNW,10.4,17.3,N/A,,Overcast,330,2013-12-05 13:27:00
7:32 AM,24.8,21.2,86,30.13,10.0,NW,11.5,-,N/A,,Overcast,320,2013-12-05 13:32:00
7:47 AM,24.8,19.4,80,30.13,10.0,NW,9.2,-,N/A,,Overcast,320,2013-12-05 13:47:00
7:58 AM,24.6,19.6,81,30.18,10.0,North,11.5,-,0.00,,Overcast,350,2013-12-05 13:58:00
8:58 AM,23.2,16.9,77,30.20,10.0,NW,11.5,18.4,N/A,,Mostly Cloudy,310,2013-12-05 14:58:00
9:58 AM,23.0,16.5,76,30.20,10.0,NW,10.4,-,N/A,,Mostly Cloudy,320,2013-12-05 15:58:00
10:00 AM,23.0,15.8,74,30.15,10.0,NW,10.4,-,N/A,,Mostly Cloudy,320,2013-12-05 16:00:00
10:20 AM,23.0,17.6,80,30.15,10.0,Variable,5.8,-,N/A,,Mostly Cloudy,0,2013-12-05 16:20:00
10:26 AM,23.0,17.6,80,30.16,10.0,NW,6.9,-,N/A,,Freezing Rain,320,2013-12-05 16:26:00
10:37 AM,23.0,17.6,80,30.18,10.0,NW,8.1,-,N/A,,Mostly Cloudy,310,2013-12-05 16:37:00
10:58 AM,23.2,16.7,76,30.21,10.0,NNW,9.2,16.1,0.00,,Mostly Cloudy,330,2013-12-05 16:58:00
11:03 AM,23.0,17.6,80,30.16,10.0,WNW,8.1,-,N/A,,Mostly Cloudy,300,2013-12-05 17:03:00
11:05 AM,23.0,15.8,74,30.15,10.0,NNW,8.1,-,N/A,Rain,Light Freezing Rain,330,2013-12-05 17:05:00
11:42 AM,23.0,17.6,80,30.17,6.0,NW,8.1,-,N/A,,Light Ice Pellets,320,2013-12-05 17:42:00
11:58 AM,22.5,18.0,83,30.24,8.0,NW,6.9,-,0.04,,Light Ice Pellets,310,2013-12-05 17:58:00
12:58 PM,22.6,17.2,80,30.22,10.0,NW,6.9,-,0.01,,Light Ice Pellets,320,2013-12-05 18:58:00
1:38 PM,23.0,15.8,74,30.16,10.0,North,9.2,-,N/A,,Scattered Clouds,350,2013-12-05 19:38:00
1:58 PM,22.6,15.6,74,30.22,10.0,NNW,6.9,-,0.00,,Partly Cloudy,330,2013-12-05 19:58:00
2:17 PM,23.0,15.8,74,30.16,10.0,North,8.1,-,N/A,Snow,Light Snow,350,2013-12-05 20:17:00
2:27 PM,23.0,15.8,74,30.16,3.0,NNW,8.1,-,N/A,Snow,Light Snow,330,2013-12-05 20:27:00
2:28 PM,23.0,15.8,74,30.16,5.0,NNW,8.1,-,N/A,Snow,Light Snow,330,2013-12-05 20:28:00
2:58 PM,21.2,17.6,86,30.20,3.0,North,4.6,-,0.00,Snow,Light Snow,360,2013-12-05 20:58:00
3:13 PM,21.2,17.6,86,30.16,2.0,NW,3.5,-,N/A,Snow,Light Snow,320,2013-12-05 21:13:00
3:33 PM,21.2,17.6,86,30.18,3.0,NNW,4.6,-,N/A,Snow,Light Snow,340,2013-12-05 21:33:00
3:43 PM,21.2,17.6,86,30.20,2.5,NNW,4.6,-,N/A,Snow,Light Snow,330,2013-12-05 21:43:00
3:48 PM,21.2,17.6,86,30.20,3.0,North,5.8,-,N/A,Snow,Light Snow,350,2013-12-05 21:48:00
3:58 PM,21.7,16.9,82,30.25,5.0,North,8.1,-,0.00,Snow,Light Snow,350,2013-12-05 21:58:00
4:38 PM,21.2,17.6,86,30.21,2.0,NNW,2.3,-,N/A,Snow,Light Snow,340,2013-12-05 22:38:00
4:43 PM,21.2,17.6,86,30.22,1.2,NNW,5.8,-,N/A,Snow,Light Snow,330,2013-12-05 22:43:00
4:48 PM,21.2,17.6,86,30.21,1.0,NNW,5.8,-,N/A,Snow,Light Snow,340,2013-12-05 22:48:00
4:58 PM,20.8,18.9,92,30.26,1.0,North,6.9,-,0.01,Snow,Light Snow,360,2013-12-05 22:58:00
5:03 PM,21.2,19.4,93,30.20,1.8,North,4.6,-,N/A,Snow,Light Snow,350,2013-12-05 23:03:00
5:08 PM,21.2,19.4,93,30.20,2.0,NNW,4.6,-,N/A,Snow,Light Snow,330,2013-12-05 23:08:00
5:13 PM,21.2,19.4,93,30.20,1.2,North,6.9,-,N/A,Snow,Light Snow,350,2013-12-05 23:13:00
5:28 PM,19.4,19.4,100,30.18,2.0,North,6.9,-,N/A,Snow,Light Snow,350,2013-12-05 23:28:00
5:43 PM,19.4,19.4,100,30.23,2.5,NW,5.8,-,N/A,Snow,Light Snow,320,2013-12-05 23:43:00
5:53 PM,19.4,19.4,100,30.21,3.0,North,5.8,-,N/A,Snow,Light Snow,350,2013-12-05 23:53:00
5:58 PM,20.1,18.9,95,30.28,5.0,NNW,4.6,-,0.03,Snow,Light Snow,330,2013-12-05 23:58:00
5:59 PM,19.4,19.4,100,30.23,6.0,NNW,4.6,-,N/A,Snow,Light Snow,330,2013-12-05 23:59:00
6:14 PM,19.4,19.4,100,30.21,5.0,NNW,5.8,-,N/A,Snow,Light Snow,340,2013-12-06 00:14:00
6:29 PM,19.4,19.4,100,30.22,3.0,NNW,9.2,-,N/A,Snow,Light Snow,330,2013-12-06 00:29:00
6:34 PM,19.4,19.4,100,30.22,1.8,NNW,8.1,-,N/A,Snow,Light Snow,330,2013-12-06 00:34:00
6:39 PM,19.4,19.4,100,30.21,1.0,NNW,9.2,-,N/A,Snow,Light Snow,340,2013-12-06 00:39:00
6:44 PM,19.4,19.4,100,30.20,1.0,North,5.8,-,N/A,Snow,Light Snow,350,2013-12-06 00:44:00
6:49 PM,19.4,19.4,100,30.21,1.2,NNW,8.1,-,N/A,Snow,Light Snow,340,2013-12-06 00:49:00
6:58 PM,19.4,17.6,93,30.29,2.0,NW,3.5,-,0.03,Snow,Light Snow,310,2013-12-06 00:58:00
7:03 PM,19.4,17.6,93,30.24,2.0,NW,4.6,-,N/A,Snow,Light Snow,320,2013-12-06 01:03:00
7:13 PM,19.4,17.6,93,30.22,1.8,NNW,5.8,-,N/A,Snow,Light Snow,340,2013-12-06 01:13:00
7:43 PM,19.4,17.6,93,30.22,1.0,NNW,4.6,-,N/A,Snow,Light Snow,330,2013-12-06 01:43:00
7:53 PM,19.4,17.6,93,30.22,1.2,NNW,6.9,-,N/A,Snow,Light Snow,330,2013-12-06 01:53:00
7:58 PM,19.0,18.1,96,30.28,1.2,NNW,8.1,-,0.04,Snow,Light Snow,340,2013-12-06 01:58:00
8:13 PM,19.4,17.6,93,30.24,2.0,NW,5.8,-,N/A,Snow,Light Snow,320,2013-12-06 02:13:00
8:18 PM,19.4,17.6,93,30.24,1.8,NNW,6.9,-,N/A,Snow,Light Snow,330,2013-12-06 02:18:00
8:43 PM,19.4,17.6,93,30.25,1.5,NNW,6.9,-,N/A,Snow,Light Snow,330,2013-12-06 02:43:00
8:58 PM,18.7,18.0,97,30.28,2.0,NNW,9.2,-,0.03,Snow,Light Snow,340,2013-12-06 02:58:00
9:03 PM,19.4,17.6,93,30.22,1.8,NNW,6.9,-,N/A,Snow,Light Snow,340,2013-12-06 03:03:00
9:18 PM,17.6,17.6,100,30.23,2.0,NNW,8.1,-,N/A,Snow,Light Snow,340,2013-12-06 03:18:00
9:28 PM,17.6,17.6,100,30.23,3.0,NNW,8.1,-,N/A,Snow,Light Snow,340,2013-12-06 03:28:00
9:38 PM,17.6,17.6,100,30.23,5.0,NNW,9.2,-,N/A,Snow,Light Snow,340,2013-12-06 03:38:00
9:58 PM,18.5,17.2,95,30.28,10.0,North,8.1,-,0.02,Snow,Light Snow,350,2013-12-06 03:58:00
10:08 PM,17.6,17.6,100,30.24,10.0,NNW,6.9,-,N/A,,Mostly Cloudy,340,2013-12-06 04:08:00
10:38 PM,17.6,15.8,93,30.24,10.0,North,6.9,-,N/A,Snow,Light Snow,350,2013-12-06 04:38:00
10:43 PM,19.4,17.6,93,30.25,10.0,North,6.9,-,N/A,Snow,Light Snow,360,2013-12-06 04:43:00
10:48 PM,19.4,17.6,93,30.25,9.0,North,6.9,-,N/A,Snow,Light Snow,350,2013-12-06 04:48:00
10:58 PM,18.5,16.5,92,30.29,6.0,North,9.2,-,0.00,Snow,Light Snow,360,2013-12-06 04:58:00
11:18 PM,17.6,15.8,93,30.23,10.0,North,8.1,-,N/A,Snow,Light Snow,10,2013-12-06 05:18:00
11:43 PM,17.6,15.8,93,30.25,7.0,North,6.9,-,N/A,Snow,Light Snow,350,2013-12-06 05:43:00
11:58 PM,18.5,16.5,92,30.32,6.0,NNW,8.1,-,0.00,Snow,Light Snow,340,2013-12-06 05:58:00